TERMEEREN Weather Reports


time (UTC)temp
C
wind
direction
speed
KPH
gust
KPH
rain 1hr
cm
rain 24hr
cm
rain mn
cm
humidity
%
barometer
mb
20260505152918 11 311 1.6 6.4 0.00 1.19 0.15 90 1009.6
20260505152431 11 341 1.6 6.4 0.00 1.19 0.15 90 1009.6
20260505151914 11 323 1.6 11.3 0.00 1.19 0.15 90 1009.7
20260505151428 11 257 1.6 11.3 0.00 1.19 0.15 90 1009.7
20260505150919 11 41 3.2 8.0 0.00 1.19 0.15 90 1009.7
20260505150435 11 299 1.6 8.0 0.00 1.19 0.15 90 1009.7
20260505140454 11 278 1.6 8.0 0.00 1.19 0.15 91 1010.0
20260505124915 11 1 1.6 8.0 0.00 1.19 0.15 91 1010.6
20260505124419 11 248 3.2 6.4 0.00 1.19 0.15 92 1010.6
20260505123931 11 340 0.0 6.4 0.00 1.19 0.15 92 1010.6
20260505123425 11 304 1.6 8.0 0.00 1.19 0.15 92 1010.6
20260505122927 11 297 1.6 4.8 0.00 1.19 0.15 92 1010.6
20260505122420 11 7 1.6 4.8 0.00 1.19 0.15 92 1010.6
20260505121935 11 319 3.2 4.8 0.00 1.19 0.15 92 1010.7
20260505121425 11 322 3.2 4.8 0.00 1.19 0.15 93 1010.6
20260505120934 11 259 1.6 6.4 0.00 1.19 0.15 92 1010.7
20260505120418 11 327 3.2 8.0 0.00 1.19 0.15 92 1010.7
20260505115923 11 306 3.2 9.7 0.00 1.19 0.15 92 1010.7
20260505115414 11 4 1.6 6.4 0.00 1.19 0.15 93 1010.7
20260505114928 11 9 3.2 9.7 0.00 1.19 0.15 93 1010.7
20260505114432 11 322 4.8 9.7 0.00 1.19 0.15 92 1010.7
20260505113925 11 299 4.8 9.7 0.00 1.19 0.15 93 1010.8
20260505113426 11 264 1.6 9.7 0.00 1.19 0.15 93 1010.8
20260505112919 10 307 4.8 9.7 0.00 1.19 0.15 93 1010.8
20260505112433 10 270 3.2 9.7 0.00 1.19 0.15 93 1011.0
20260505111917 10 274 1.6 8.0 0.00 1.19 0.15 93 1011.0
20260505111430 10 297 1.6 9.7 0.00 1.19 0.15 94 1011.0
20260505110944 10 9 1.6 9.7 0.00 1.19 0.15 94 1011.0
20260505110419 10 314 1.6 6.4 0.00 1.19 0.15 94 1011.0
20260505101922 11 294 0.0 8.0 0.00 1.19 0.15 94 1011.0
20260505101415 11 324 1.6 8.0 0.00 1.19 0.15 94 1010.9
20260505100918 11 297 1.6 8.0 0.00 1.19 0.15 94 1010.9
20260505100425 11 298 0.0 8.0 0.00 1.19 0.15 94 1011.0
20260505095417 10 316 3.2 8.0 0.00 1.19 0.15 94 1011.0
20260505094931 10 322 0.0 8.0 0.00 1.19 0.15 94 1011.1
20260505094424 10 335 3.2 8.0 0.00 1.19 0.15 94 1011.0
20260505093958 10 349 0.0 6.4 0.00 1.19 0.15 94 1011.0
20260505093422 11 20 0.0 6.4 0.00 1.19 0.15 94 1011.1
20260505092915 11 292 1.6 8.0 0.00 1.19 0.15 94 1011.0
20260505092419 10 244 3.2 8.0 0.00 1.19 0.15 94 1011.0
20260505091931 10 352 0.0 8.0 0.00 1.19 0.15 94 1011.0
20260505091414 10 304 0.0 4.8 0.00 1.19 0.15 94 1011.0
20260505090956 10 301 0.0 8.0 0.00 1.19 0.15 94 1011.0
20260505090442 10 302 1.6 8.0 0.00 1.19 0.15 94 1011.1
20260505085923 10 315 3.2 8.0 0.00 1.19 0.15 94 1011.0
20260505085436 10 270 3.2 8.0 0.00 1.19 0.15 94 1011.0
20260505084916 10 296 3.2 8.0 0.00 1.19 0.15 94 1011.1
20260505084448 10 306 1.6 9.7 0.00 1.19 0.15 94 1011.1
20260505083941 10 296 1.6 9.7 0.00 1.19 0.15 94 1011.1
20260505083428 10 315 1.6 8.0 0.00 1.19 0.15 94 1011.2
20260505082933 10 297 1.6 8.0 0.00 1.19 0.15 94 1011.2
20260505082433 10 304 1.6 9.7 0.00 1.19 0.15 94 1011.3
20260505081926 10 321 3.2 9.7 0.00 1.19 0.15 94 1011.2
20260505081429 10 297 1.6 11.3 0.00 1.19 0.15 94 1011.2
20260505080921 10 317 3.2 11.3 0.00 1.19 0.15 94 1011.2
20260505080429 10 283 4.8 9.7 0.00 1.19 0.15 94 1011.2
20260505075939 10 305 3.2 11.3 0.00 1.19 0.15 94 1011.2
20260505075424 10 309 3.2 12.9 0.00 1.19 0.15 94 1011.1
20260505074938 10 329 3.2 9.7 0.00 1.19 0.15 94 1011.1
20260505074421 10 305 1.6 6.4 0.00 1.19 0.15 94 1011.2
20260505073933 10 299 3.2 6.4 0.00 1.19 0.15 94 1011.2
20260505073424 10 334 0.0 8.0 0.00 1.19 0.15 94 1011.2
20260505072957 10 290 3.2 9.7 0.00 1.19 0.15 94 1011.2
20260505071917 10 252 3.2 9.7 0.00 1.19 0.15 93 1011.3
20260505071419 10 253 4.8 9.7 0.00 1.19 0.15 93 1011.2
20260505070932 11 313 3.2 9.7 0.00 1.19 0.15 93 1011.2
20260505070455 11 267 1.6 8.0 0.00 1.19 0.15 93 1011.2
20260505065926 11 278 1.6 8.0 0.00 1.19 0.15 93 1011.2
20260505065430 10 290 1.6 9.7 0.00 1.19 0.15 93 1011.2
20260505064922 11 323 3.2 9.7 0.00 1.19 0.15 93 1011.3
20260505064453 11 323 1.6 9.7 0.00 1.19 0.15 93 1011.2
20260505063916 11 319 4.8 12.9 0.00 1.19 0.15 93 1011.1
20260505063428 11 319 4.8 9.7 0.00 1.19 0.15 94 1011.2
20260505062920 11 302 3.2 8.0 0.00 1.19 0.15 94 1011.2
20260505062420 11 305 1.6 6.4 0.00 1.19 0.15 94 1011.2
20260505061931 11 307 1.6 6.4 0.00 1.19 0.15 94 1011.3
20260505061415 11 321 1.6 6.4 0.00 1.19 0.15 94 1011.4
20260505060928 11 347 0.0 6.4 0.00 1.19 0.15 94 1011.4
20260505060432 11 12 526.3 0.0 0.00 1.19 0.15 1011.5
20260505055922 -17 0.0 0.0 0.00 1.19 0.15 1011.6
20260505055425 -17 0.0 0.0 0.00 1.19 0.15 1011.6
20260505054916 -17 0.0 0.0 0.00 1.19 0.15 1011.4
20260505054449 -17 0.0 0.0 0.00 1.19 0.15 1011.5
20260505054017 -17 0.0 0.0 0.00 1.19 0.15 1011.4
20260505053430 -17 0.0 0.0 0.00 1.19 0.15 1011.4
20260505052919 -17 0.0 0.0 0.00 1.19 0.15 1011.3
20260505052451 -17 0.0 0.0 0.00 1.19 0.15 1011.3
20260505052023 -17 0.0 0.0 0.00 1.19 0.15 1011.3
20260505050925 -17 0.0 0.0 0.00 1.19 0.15 1011.2
20260505050431 -17 0.0 0.0 0.00 1.19 0.15 1011.2
20260505041424 11 307 0.0 3.2 0.00 1.19 0.15 94 1011.4
20260505040938 11 256 0.0 8.0 0.00 1.19 0.15 94 1011.4
20260505040420 11 323 3.2 8.0 0.00 1.19 0.15 94 1011.3
20260505035933 11 319 1.6 6.4 0.00 1.19 0.15 94 1011.4
20260505035434 11 297 3.2 6.4 0.00 1.30 0.15 94 1011.4
20260505034923 11 308 1.6 6.4 0.00 1.30 0.15 94 1011.4
20260505034428 11 318 1.6 8.0 0.00 1.30 0.15 94 1011.5
20260505033921 11 276 1.6 8.0 0.00 1.30 0.15 94 1011.5
20260505033433 11 301 3.2 11.3 0.00 1.30 0.15 94 1011.6
20260505032918 11 321 3.2 11.3 0.00 1.30 0.15 94 1011.7
20260505032431 11 302 0.0 6.4 0.00 1.30 0.15 94 1011.7
20260505031916 11 307 3.2 6.4 0.00 1.30 0.15 94 1011.7
20260505031430 11 274 1.6 9.7 0.00 1.30 0.15 94 1011.6
20260505030914 11 354 1.6 9.7 0.00 1.30 0.15 94 1011.6
20260505030450 11 343 1.6 8.0 0.00 1.30 0.15 94 1011.7
20260505025933 11 314 1.6 6.4 0.00 1.30 0.15 94 1011.7
20260505025426 12 304 1.6 6.4 0.00 1.30 0.15 94 1011.6
20260505024939 12 349 0.0 6.4 0.00 1.30 0.15 94 1011.6
20260505024421 12 319 3.2 6.4 0.00 1.30 0.15 94 1011.6
20260505023948 12 317 3.2 6.4 0.00 1.30 0.15 94 1011.6
20260505023441 12 324 4.8 6.4 0.00 1.30 0.15 94 1011.7
20260505022455 12 273 0.0 4.8 0.00 1.30 0.15 94 1011.7
20260505021918 12 270 1.6 4.8 0.00 1.30 0.15 94 1011.7
20260505021429 12 293 0.0 3.2 0.00 1.30 0.15 94 1011.7
20260505020914 12 302 0.0 3.2 0.00 1.30 0.15 94 1011.7
20260505020421 12 274 0.0 1.6 0.00 1.30 0.15 94 1011.6
20260505015915 12 273 0.0 1.6 0.00 1.30 0.15 94 1011.7
20260505015419 12 273 0.0 1.6 0.00 1.30 0.15 94 1011.7
20260505014933 12 274 0.0 4.8 0.00 1.30 0.15 94 1011.7
20260505014427 12 295 1.6 6.4 0.00 1.30 0.15 94 1011.7
20260505013932 12 271 0.0 6.4 0.00 1.30 0.15 94 1011.6
20260505013434 12 301 0.0 4.8 0.00 1.30 0.15 94 1011.6
20260505012919 12 305 1.6 4.8 0.00 1.30 0.15 94 1011.6
20260505012433 12 354 1.6 4.8 0.00 1.30 0.15 94 1011.7
20260505011945 12 300 1.6 4.8 0.00 1.30 0.15 94 1011.7
20260505011427 12 304 1.6 4.8 0.00 1.30 0.15 94 1011.7
20260505010920 12 302 1.6 4.8 0.00 1.30 0.15 94 1011.8
20260505010427 12 301 0.0 6.4 0.00 1.30 0.15 94 1011.8
20260505005927 12 320 1.6 6.4 0.00 1.30 0.15 94 1011.8
20260505005420 12 227 0.0 6.4 0.00 1.40 0.15 94 1011.8
20260505004953 12 301 1.6 6.4 0.00 1.40 0.15 94 1011.8
20260505004417 12 313 0.0 4.8 0.00 1.40 0.15 94 1011.9
20260505003920 12 311 1.6 4.8 0.00 1.40 0.15 94 1011.9
20260505003433 12 245 1.6 4.8 0.00 1.40 0.15 94 1012.0
20260505002917 12 182 0.0 3.2 0.00 1.40 0.15 94 1012.0
20260505002439 12 319 0.0 3.2 0.00 1.40 0.15 94 1012.0
20260505001921 12 255 0.0 3.2 0.00 1.40 0.15 94 1012.0
20260505001415 12 197 0.0 4.8 0.00 1.40 0.15 94 1012.1
20260505000948 12 198 1.6 4.8 0.00 1.40 0.15 94 1012.1
20260505000455 12 214 0.0 3.2 0.00 1.40 0.15 94 1012.1
20260504235916 12 198 1.6 3.2 0.10 1.40 0.15 94 1012.1
20260504235430 12 226 0.0 4.8 0.10 1.60 0.15 94 1012.1
20260504234923 12 186 0.0 4.8 0.20 1.60 0.15 94 1012.2
20260504234458 12 188 1.6 4.8 0.20 1.60 0.15 94 1012.2
20260504233920 12 187 0.0 4.8 0.30 1.60 0.15 94 1012.2
20260504233434 12 181 1.6 4.8 0.41 1.60 0.15 94 1012.3
20260504232943 12 187 1.6 4.8 0.51 1.60 0.15 94 1012.3
20260504232427 12 203 1.6 4.8 0.61 1.60 0.15 94 1012.3
20260504231919 12 207 1.6 4.8 0.71 1.60 0.15 94 1012.3
20260504231423 12 187 0.0 4.8 0.71 1.60 0.15 94 1012.4
20260504230917 12 167 0.0 4.8 0.71 1.60 0.15 94 1012.5
20260504230424 12 167 0.0 4.8 0.71 1.60 0.15 94 1012.5
20260504225936 12 203 0.0 3.2 0.61 1.50 0.13 94 1012.5
20260504225446 12 202 0.0 1.6 0.61 1.50 0.13 94 1012.5
20260504224928 12 193 0.0 1.6 0.61 1.40 0.10 94 1012.5
20260504224420 12 183 0.0 6.4 0.61 1.40 0.10 94 1012.6
20260504223935 12 149 1.6 6.4 0.51 1.30 0.08 94 1012.6
20260504223417 12 204 0.0 4.8 0.41 1.19 0.05 94 1012.6
20260504222930 12 210 0.0 3.2 0.30 1.09 0.05 94 1012.7
20260504222444 12 191 0.0 3.2 0.20 0.99 0.03 94 1012.7
20260504221927 12 188 1.6 6.4 0.10 0.89 0.00 94 1012.8
20260504221440 12 199 1.6 6.4 0.10 0.89 0.00 94 1012.8
20260504220924 13 304 0.0 1.6 0.20 0.89 0.00 93 1012.9
20260504220425 13 283 0.0 3.2 0.20 0.89 0.00 93 1013.0
20260504215918 13 335 0.0 6.4 0.20 0.89 0.00 93 1013.1
20260504215425 13 302 1.6 6.4 0.20 0.89 0.18 93 1013.1
20260504214919 13 294 1.6 4.8 0.10 0.79 0.15 93 1013.1
20260504214423 13 236 1.6 4.8 0.10 0.79 0.15 93 1013.1
20260504213916 13 287 1.6 4.8 0.10 0.79 0.15 93 1013.1
20260504213439 13 312 0.0 3.2 0.10 0.79 0.15 93 1013.1
20260504212919 13 236 0.0 3.2 0.10 0.79 0.15 92 1013.1
20260504212431 13 327 0.0 4.8 0.20 0.79 0.15 92 1013.1
20260504211946 13 315 0.0 4.8 0.30 0.79 0.15 92 1013.2
20260504211437 13 181 0.0 4.8 0.30 0.79 0.15 93 1013.2
20260504210921 13 181 0.0 1.6 0.20 0.71 0.15 93 1013.2
20260504210425 13 181 0.0 1.6 0.20 0.71 0.15 92 1013.2
20260504205940 13 290 0.0 1.6 0.20 0.71 0.15 92 1013.2
20260504205423 13 290 0.0 1.6 0.20 0.71 0.15 92 1013.3
20260504204955 13 339 0.0 0.0 0.20 0.71 0.15 92 1013.2
20260504204423 13 339 0.0 0.0 0.20 0.71 0.15 92 1013.2
20260504203927 13 339 0.0 0.0 0.20 0.71 0.15 91 1013.2
20260504203420 13 339 0.0 0.0 0.20 0.71 0.15 91 1013.2
20260504202933 13 339 0.0 0.0 0.20 0.71 0.15 91 1013.2
20260504202503 13 340 0.0 0.0 0.10 0.61 0.13 91 1013.2
20260504201925 13 339 0.0 0.0 0.00 0.51 0.10 91 1013.2
20260504201439 13 339 0.0 0.0 0.00 0.51 0.10 90 1013.2
20260504200921 13 339 0.0 0.0 0.00 0.51 0.10 90 1013.2
20260504200427 13 340 0.0 0.0 0.00 0.51 0.10 90 1013.2
20260504195920 13 339 0.0 0.0 0.10 0.51 0.10 90 1013.2
20260504195424 13 339 0.0 0.0 0.10 0.51 0.10 90 1013.2
20260504194918 13 340 0.0 0.0 0.10 0.51 0.10 90 1013.2
20260504194421 13 339 0.0 1.6 0.10 0.51 0.10 91 1013.1
20260504193916 13 339 0.0 1.6 0.10 0.51 0.10 91 1013.2
20260504193428 13 351 0.0 1.6 0.10 0.51 0.10 90 1013.1
20260504192933 13 8 0.0 0.0 0.10 0.51 0.10 90 1012.9
20260504192425 13 8 0.0 0.0 0.10 0.51 0.10 90 1012.8
20260504191939 14 8 0.0 0.0 0.10 0.51 0.10 90 1012.6
20260504191442 14 8 0.0 0.0 0.10 0.51 0.10 89 1012.5
20260504190928 14 8 0.0 0.0 0.10 0.51 0.10 89 1012.4
20260504190433 14 8 526.3 0.0 0.10 0.51 0.10 82 1012.4
20260504181030 16 8 0.0 0.0 0.00 0.41 0.08 82 1012.1